This demonstration page uses our WeatherBlox Daily Observations layout. Learn more.

Left ArrowRight Arrow

39.29038, -76.61219

Hourly Observations for May 12, 2021

Temp ( °F °C ) Dew Point ( °F °C ) Humidity (%) Winds ( mph kmh ) Pressure ( in mb ) Visibility ( mi km ) Precip ( " mm )
12:54 am 00:54 Mostly Cloudy 55 12.8 27 -2.8 34 34 NW 8 13 30.19 1023 10 16 N/A
1:54 am 01:54 Mostly Cloudy 53 11.7 25 -3.9 34 34 NNW 6 9 30.20 1023 10 16 N/A
2:54 am 02:54 Mostly Cloudy 51 10.6 25 -3.9 36 36 W 5 7 30.21 1023 10 16 N/A
3:54 am 03:54 Partly Cloudy 49 9.4 25 -3.9 39 39 NW 6 9 30.22 1023 10 16 N/A
4:54 am 04:54 Partly Cloudy 46 7.8 26 -3.3 46 46 W 5 7 30.24 1024 10 16 N/A
5:54 am 05:54 Mostly Cloudy 43 6.1 30 -1.1 60 60 W 3 6 30.24 1024 10 16 N/A
6:54 am 06:54 Mostly Cloudy 46 7.8 30 -1.1 54 54 SW 5 7 30.25 1024 10 16 N/A
7:54 am 07:54 Mostly Cloudy 50 10 32 undefined 50 50 W 7 11 30.26 1025 10 16 N/A
8:54 am 08:54 Mostly Cloudy 52 11.1 31 -0.6 45 45 NW 13 20 30.26 1025 10 16 N/A
9:54 am 09:54 Mostly Cloudy 54 12.2 32 undefined 43 43 NNW 13 20 30.25 1024 10 16 N/A
10:54 am 10:54 Mostly Cloudy 57 13.9 35 1.7 44 44 NNW 8 13 30.26 1025 10 16 N/A
11:54 am 11:54 Mostly Cloudy 59 15 36 2.2 42 42 N 7 11 30.25 1024 10 16 N/A
12:54 pm 12:54 Mostly Cloudy 62 16.7 37 2.8 40 40 NNW 10 17 30.23 1024 10 16 N/A
1:54 pm 13:54 Mostly Cloudy 64 17.8 37 2.8 37 37 VRB 6 9 30.22 1023 10 16 N/A
2:54 pm 14:54 Mostly Cloudy 65 18.3 38 3.3 37 37 VRB 7 11 30.20 1023 10 16 N/A
3:05 pm 15:05 Mostly Cloudy 65 18.3 37 2.8 36 36 WNW 10 17 30.20 1023 10 16 N/A
3:54 pm 15:54 Mostly Cloudy 65 18.3 36 2.2 34 34 NNE 8 13 30.19 1022 10 16 N/A
4:54 pm 16:54 Mostly Cloudy 69 20.6 36 2.2 30 30 NW 7 11 30.17 1022 10 16 N/A
5:54 pm 17:54 Mostly Cloudy 69 20.6 35 1.7 29 29 NW 9 15 30.17 1022 10 16 N/A
6:54 pm 18:54 Partly Cloudy 67 19.4 33 0.6 28 28 NNE 3 6 30.16 1022 10 16 N/A
7:54 pm 19:54 Mostly Sunny 65 18.3 31 -0.6 28 28 NNE 5 7 30.18 1022 10 16 N/A
8:54 pm 20:54 Mostly Clear 59 15 38 3.3 46 46 SSW 6 9 30.20 1023 10 16 N/A
9:54 pm 21:54 Mostly Clear 54 12.2 39 3.9 57 57 SW 3 6 30.21 1023 10 16 N/A
10:54 pm 22:54 Mostly Clear 52 11.1 41 5 66 66 W 3 6 30.21 1023 10 16 N/A
11:54 pm 23:54 Mostly Clear 49 9.4 41 5 74 74 WNW 3 6 30.22 1023 10 16 N/A

Powered by AerisWeather